Tracking 21473 objects as of 27-Sep-2020
HD Live streaming from Space Station
objects crossing your sky now

STARLINK-1396

Track STARLINK-1396 now!
10-day predictions
STARLINK-1396 is classified as:


NORAD ID: 45681
Int'l Code: 2020-035AA
Perigee: 555.4 km
Apogee: 558.5 km
Inclination: 53.0 °
Period: 95.6 minutes
Semi major axis: 6927 km
RCS: Unknown
Launch date: June 4, 2020
Source: United States (US)
Launch site: AIR FORCE EASTERN TEST RANGE (AFETR)
aabbcc
Your satellite tracking list
Your tracking list is empty




NASA's NSSDC Master Catalog

Two Line Element Set (TLE):
1 45681U 20035AA  20271.58337963 +.00017495 +00000-0 +12175-2 0  9994
2 45681 053.0004 346.0584 0002227 060.0000 008.1432 15.05560796001763
Source of the keplerian elements: AFSPC